Radiation Dose at Monitoring Post of Fukushima Daini Nuclear Power Station
Date,Time,MP-1(microSv/h),MP-2(microSv/h),MP-3(microSv/h),MP-4(microSv/h),MP-5(microSv/h),MP-6(microSv/h),MP-7(microSv/h),Wind Direction,Wind Velocity(m/s),Rain
2015/05/20,00:00,0.534,0.318,0.564,0.525,0.471,0.244,0.217,west,1.0,No
2015/05/20,00:10,0.531,0.318,0.559,0.522,0.466,0.245,0.215,west-northwest,0.5,No
2015/05/20,00:20,0.534,0.321,0.562,0.525,0.471,0.244,0.217,north,0.7,No
2015/05/20,00:30,0.529,0.320,0.561,0.522,0.467,0.244,0.215,north-northwest,1.1,No
2015/05/20,00:40,0.535,0.320,0.562,0.526,0.471,0.243,0.217,north,1.4,No
2015/05/20,00:50,0.529,0.318,0.561,0.521,0.466,0.244,0.215,north-northeast,1.7,No
2015/05/20,01:00,0.535,0.319,0.563,0.525,0.472,0.244,0.215,north-northeast,1.0,No
2015/05/20,01:10,0.530,0.319,0.560,0.520,0.466,0.244,0.217,east-southeast,0.6,No
2015/05/20,01:20,0.535,0.320,0.564,0.525,0.470,0.242,0.216,-,CALM,No
2015/05/20,01:30,0.530,0.319,0.561,0.519,0.467,0.244,0.217,east,0.6,No
2015/05/20,01:40,0.534,0.321,0.563,0.525,0.469,0.245,0.214,southeast,0.6,No
2015/05/20,01:50,0.530,0.320,0.559,0.522,0.466,0.244,0.217,east-southeast,0.7,No
2015/05/20,02:00,0.535,0.320,0.562,0.524,0.471,0.243,0.215,-,CALM,No
2015/05/20,02:10,0.531,0.318,0.561,0.521,0.468,0.244,0.217,-,CALM,No
2015/05/20,02:20,0.535,0.321,0.564,0.527,0.472,0.245,0.215,southeast,0.7,No
2015/05/20,02:30,0.532,0.319,0.559,0.521,0.466,0.244,0.216,-,CALM,No
2015/05/20,02:40,0.534,0.320,0.564,0.527,0.473,0.244,0.216,-,CALM,No
2015/05/20,02:50,0.531,0.316,0.561,0.523,0.468,0.244,0.216,north-northeast,1.9,No
2015/05/20,03:00,0.534,0.320,0.563,0.523,0.472,0.245,0.216,north-northwest,1.2,No
2015/05/20,03:10,0.531,0.319,0.562,0.523,0.468,0.245,0.216,north,1.8,No
2015/05/20,03:20,0.535,0.321,0.565,0.524,0.473,0.244,0.216,north,2.1,No
2015/05/20,03:30,0.531,0.320,0.561,0.526,0.469,0.245,0.216,north,2.2,No
2015/05/20,03:40,0.534,0.321,0.564,0.523,0.471,0.245,0.216,north-northwest,4.0,No
2015/05/20,03:50,0.533,0.321,0.560,0.526,0.467,0.245,0.216,north-northwest,4.2,No
2015/05/20,04:00,0.535,0.318,0.563,0.522,0.467,0.244,0.216,north-northwest,4.2,No
2015/05/20,04:10,0.531,0.321,0.563,0.525,0.470,0.243,0.216,north-northwest,4.1,No
2015/05/20,04:20,0.534,0.319,0.561,0.522,0.467,0.244,0.216,north-northwest,4.2,No
2015/05/20,04:30,0.531,0.321,0.563,0.528,0.471,0.244,0.215,north,4.7,No
2015/05/20,04:40,0.535,0.318,0.560,0.519,0.467,0.243,0.216,north,4.7,No
2015/05/20,04:50,0.531,0.322,0.562,0.524,0.470,0.245,0.215,north,4.4,No
2015/05/20,05:00,0.536,0.320,0.558,0.522,0.467,0.245,0.217,north-northeast,3.4,No
2015/05/20,05:10,0.533,0.323,0.565,0.526,0.472,0.245,0.217,north-northeast,3.3,No
2015/05/20,05:20,0.534,0.320,0.559,0.522,0.467,0.246,0.218,north-northeast,2.9,No
2015/05/20,05:30,0.534,0.322,0.566,0.526,0.471,0.244,0.216,north,3.5,No
2015/05/20,05:40,0.535,0.319,0.559,0.522,0.468,0.245,0.217,north,4.1,No
2015/05/20,05:50,0.533,0.321,0.567,0.524,0.473,0.244,0.218,north-northeast,3.4,No
2015/05/20,06:00,0.536,0.318,0.560,0.522,0.468,0.245,0.217,north-northeast,3.3,No
2015/05/20,06:10,0.531,0.322,0.564,0.525,0.472,0.245,0.218,north,3.1,No
2015/05/20,06:20,0.535,0.318,0.561,0.521,0.467,0.245,0.215,north,3.3,No
2015/05/20,06:30,0.529,0.321,0.564,0.527,0.473,0.245,0.216,north,3.0,No
2015/05/20,06:40,0.536,0.318,0.562,0.520,0.468,0.246,0.217,north,3.3,No
2015/05/20,06:50,0.529,0.319,0.558,0.524,0.471,0.245,0.214,north,2.0,No
2015/05/20,07:00,0.535,0.321,0.561,0.521,0.472,0.244,0.215,north-northeast,1.5,No
2015/05/20,07:10,0.531,0.318,0.556,0.521,0.467,0.244,0.216,north-northeast,1.3,No
2015/05/20,07:20,0.529,0.316,0.554,0.524,0.471,0.244,0.213,northeast,1.6,No
2015/05/20,07:30,0.534,0.319,0.560,0.520,0.467,0.245,0.214,northeast,1.5,No
2015/05/20,07:40,0.528,0.320,0.561,0.518,0.469,0.244,0.213,north-northeast,0.6,No
2015/05/20,07:50,0.532,0.318,0.556,0.524,0.469,0.243,0.215,north,0.7,No
2015/05/20,08:00,0.532,0.316,0.554,0.522,0.464,0.244,0.216,-,CALM,No
2015/05/20,08:10,0.527,0.316,0.564,0.518,0.471,0.243,0.215,northeast,0.9,No
2015/05/20,08:20,0.527,0.315,0.561,0.517,0.471,0.243,0.214,west,0.7,No
2015/05/20,08:30,0.533,0.318,0.560,0.515,0.466,0.244,0.214,northeast,1.7,No
2015/05/20,08:40,0.533,0.321,0.567,0.519,0.465,0.245,0.214,-,CALM,No
2015/05/20,08:50,0.529,0.318,0.561,0.526,0.467,0.245,0.214,east-southeast,0.7,No
2015/05/20,09:00,0.534,0.317,0.562,0.525,0.472,0.245,0.214,east-southeast,1.0,No
2015/05/20,09:10,0.533,0.318,0.566,0.522,0.469,0.245,0.216,east,0.9,No
2015/05/20,09:20,0.529,0.322,0.560,0.519,0.467,0.245,0.216,south-southeast,1.4,No
2015/05/20,09:30,0.529,0.319,0.562,0.518,0.465,0.243,0.216,southeast,1.1,No
2015/05/20,09:40,0.535,0.316,0.566,0.518,0.473,0.245,0.215,south-southeast,0.6,No
2015/05/20,09:50,0.534,-,0.560,0.527,0.471,0.245,0.216,east-northeast,2.4,No
2015/05/20,10:00,0.529,-,0.564,0.528,0.470,0.245,0.216,east-southeast,1.3,No
2015/05/20,10:10,0.536,-,0.566,0.524,0.467,0.245,0.215,east,1.4,No
2015/05/20,10:20,0.536,-,0.561,0.523,0.464,0.243,0.216,east-southeast,1.3,No
2015/05/20,10:30,0.532,-,0.558,0.522,0.470,0.245,0.217,east,1.9,No
2015/05/20,10:40,0.530,0.313,0.556,0.519,0.474,0.245,0.217,east,2.3,No
2015/05/20,10:50,0.533,0.319,0.562,0.523,0.472,0.245,0.215,east,2.3,No
2015/05/20,11:00,0.537,0.319,0.566,0.527,0.469,0.246,0.216,east,2.2,No
2015/05/20,11:10,0.534,0.316,0.563,0.526,0.467,0.244,0.217,southeast,2.5,No
2015/05/20,11:20,0.529,0.314,0.561,0.525,0.466,0.246,0.217,southeast,2.7,No
2015/05/20,11:30,0.532,0.316,0.558,0.524,0.472,0.245,0.217,southeast,3.1,No
2015/05/20,11:40,0.539,0.322,0.556,0.522,0.474,0.245,0.216,south-southeast,2.7,No
2015/05/20,11:50,0.536,0.320,0.564,0.525,0.473,0.244,0.217,south-southeast,2.2,No
2015/05/20,12:00,0.532,0.319,0.567,0.530,0.468,0.245,0.217,south-southeast,2.1,No
2015/05/20,12:10,0.530,0.317,0.566,0.530,0.467,0.246,0.218,south-southeast,2.5,No
2015/05/20,12:20,0.533,0.320,0.563,0.527,0.468,0.245,0.217,south-southeast,1.5,No
2015/05/20,12:30,0.540,0.322,0.560,0.525,0.474,0.244,0.217,south-southeast,1.4,No
2015/05/20,12:40,0.536,0.320,0.561,0.524,0.475,0.245,0.216,south-southeast,0.6,No
2015/05/20,12:50,0.533,0.317,0.560,0.522,0.472,0.245,0.217,southeast,0.8,No
2015/05/20,13:00,0.539,0.316,0.560,0.528,0.470,0.246,0.219,southeast,1.7,No
2015/05/20,13:10,0.539,0.319,0.563,0.530,0.468,0.247,0.219,south-southeast,2.5,No
2015/05/20,13:20,0.536,0.322,0.569,0.527,0.467,0.246,0.217,south-southeast,3.1,No
2015/05/20,13:30,0.535,0.320,0.570,0.526,0.475,0.246,0.217,south-southeast,3.0,No
2015/05/20,13:40,0.540,0.316,0.565,0.522,0.475,0.245,0.216,southeast,2.9,No
2015/05/20,13:50,0.537,0.315,0.564,0.524,0.472,0.245,0.219,southeast,2.3,No
2015/05/20,14:00,0.534,0.316,0.562,0.534,0.471,0.247,0.218,south-southeast,2.7,No
2015/05/20,14:10,0.534,-,0.562,0.532,0.470,0.245,0.218,south-southeast,2.8,No
2015/05/20,14:20,0.540,-,0.561,0.527,0.469,0.245,0.216,south-southeast,2.5,No
2015/05/20,14:30,0.536,-,0.566,0.526,0.467,0.246,0.216,south-southeast,2.5,No
2015/05/20,14:40,0.533,-,0.569,0.523,0.474,0.247,0.218,south,1.6,No
2015/05/20,14:50,0.532,-,0.567,0.532,0.475,0.246,0.218,south,2.8,No
2015/05/20,15:00,0.539,0.322,0.565,0.532,0.474,0.246,0.218,south,3.4,No
2015/05/20,15:10,0.538,0.321,0.563,0.529,0.471,0.246,0.218,south,2.7,No
2015/05/20,15:20,0.535,0.320,0.570,0.535,0.470,0.247,0.219,south,2.6,No
2015/05/20,15:30,0.543,0.325,0.570,0.533,0.478,0.246,0.218,south-southeast,1.9,No
2015/05/20,15:40,0.539,0.321,0.564,0.528,0.476,0.246,0.219,south-southeast,2.8,No
2015/05/20,15:50,0.537,0.322,0.573,0.534,0.472,0.248,0.220,south-southeast,3.9,No
2015/05/20,16:00,0.540,0.324,0.571,0.529,0.479,0.246,0.219,south,3.0,No
2015/05/20,16:10,0.535,0.319,0.566,0.532,0.475,0.247,0.220,south,3.2,No
2015/05/20,16:20,0.538,0.324,0.572,0.533,0.475,0.249,0.218,south,2.9,No
2015/05/20,16:30,0.539,0.322,0.567,0.529,0.476,0.247,0.220,south,2.5,No
2015/05/20,16:40,0.535,0.322,0.570,0.532,0.472,0.247,0.219,south,3.1,No
2015/05/20,16:50,0.543,0.322,0.569,0.528,0.476,0.247,0.219,south,2.8,No
2015/05/20,17:00,0.535,0.321,0.566,0.531,0.474,0.248,0.219,south,3.4,No
2015/05/20,17:10,0.540,0.321,0.570,0.531,0.474,0.247,0.219,south,3.8,No
2015/05/20,17:20,0.539,0.320,0.567,0.530,0.476,0.246,0.219,south,4.0,No
2015/05/20,17:30,0.535,0.325,0.572,0.533,0.472,0.248,0.217,south-southwest,4.7,No
2015/05/20,17:40,0.542,0.322,0.569,0.529,0.478,0.247,0.219,south,4.2,No
2015/05/20,17:50,0.535,0.324,0.569,0.534,0.472,0.248,0.218,south-southwest,3.9,No
2015/05/20,18:00,0.540,0.325,0.572,0.529,0.476,0.246,0.220,south-southwest,4.0,No
2015/05/20,18:10,0.538,0.320,0.567,0.532,0.472,0.247,0.218,west-southwest,2.1,No
2015/05/20,18:20,0.535,0.322,0.571,0.532,0.474,0.246,0.220,north-northeast,5.0,No
2015/05/20,18:30,0.541,0.320,0.564,0.531,0.475,0.247,0.217,north,5.3,No
2015/05/20,18:40,0.536,0.324,0.571,0.532,0.471,0.247,0.219,north,4.8,No
2015/05/20,18:50,0.541,0.321,0.567,0.530,0.475,0.247,0.218,north,4.8,No
2015/05/20,19:00,0.536,0.324,0.569,0.534,0.471,0.248,0.220,north,4.4,No
2015/05/20,19:10,0.543,0.321,0.569,0.528,0.476,0.245,0.218,north,3.6,No
2015/05/20,19:20,0.537,0.323,0.568,0.533,0.470,0.248,0.219,north-northeast,2.8,No
2015/05/20,19:30,0.541,0.321,0.570,0.528,0.477,0.246,0.218,north-northeast,3.4,No
2015/05/20,19:40,0.537,0.323,0.566,0.532,0.471,0.248,0.219,north-northeast,2.8,No
2015/05/20,19:50,0.539,0.321,0.571,0.529,0.476,0.247,0.219,north-northeast,3.1,No
2015/05/20,20:00,0.539,0.323,0.565,0.532,0.470,0.247,0.220,north-northeast,3.5,No
2015/05/20,20:10,0.537,0.321,0.573,0.530,0.476,0.247,0.218,north-northeast,3.0,Yes
2015/05/20,20:20,0.539,0.323,0.567,0.533,0.473,0.246,0.219,north-northeast,3.7,No
2015/05/20,20:30,0.537,0.321,0.573,0.530,0.478,0.246,0.220,north-northeast,3.0,No
2015/05/20,20:40,0.541,0.323,0.566,0.531,0.473,0.246,0.220,north,4.0,No
2015/05/20,20:50,0.535,0.321,0.569,0.532,0.475,0.246,0.219,north-northeast,2.4,No
2015/05/20,21:00,0.541,0.322,0.568,0.529,0.473,0.247,0.219,north-northeast,3.3,No
2015/05/20,21:10,0.536,0.322,0.569,0.532,0.475,0.247,0.219,north,2.0,No
2015/05/20,21:20,0.541,0.321,0.567,0.530,0.472,0.246,0.219,north,1.5,No
2015/05/20,21:30,0.535,0.322,0.567,0.532,0.474,0.248,0.219,northeast,2.8,No
2015/05/20,21:40,0.542,0.322,0.569,0.529,0.474,0.246,0.219,northeast,1.2,No
2015/05/20,21:50,0.535,0.320,0.567,0.533,0.473,0.247,0.220,north-northeast,1.7,No
2015/05/20,22:00,0.540,0.322,0.569,0.528,0.474,0.246,0.219,northeast,2.9,Yes
2015/05/20,22:10,0.537,0.320,0.568,0.533,0.473,0.248,0.219,northeast,2.5,No
2015/05/20,22:20,0.540,0.323,0.571,0.528,0.475,0.246,0.220,north-northeast,1.4,No
2015/05/20,22:30,0.537,0.320,0.565,0.532,0.473,0.247,0.220,northwest,3.6,No
2015/05/20,22:40,0.538,0.323,0.571,0.529,0.475,0.246,0.218,north-northwest,4.3,No
2015/05/20,22:50,0.538,0.322,0.568,0.534,0.473,0.248,0.220,northwest,4.3,No
2015/05/20,23:00,0.540,0.323,0.571,0.529,0.475,0.247,0.219,north-northwest,4.2,Yes
2015/05/20,23:10,0.539,0.322,0.566,0.534,0.472,0.248,0.220,north-northwest,4.2,Yes
2015/05/20,23:20,0.537,0.323,0.572,0.529,0.475,0.248,0.220,north-northwest,3.8,Yes
2015/05/20,23:30,0.542,0.323,0.566,0.535,0.472,0.248,0.221,north-northwest,1.9,Yes
2015/05/20,23:40,0.537,0.324,0.571,0.532,0.476,0.248,0.219,west-northwest,3.5,No
2015/05/20,23:50,0.542,0.323,0.568,0.532,0.472,0.248,0.221,north,5.0,Yes
